Weather History for Sand Point, AK

Change the Weather History Date:

Saturday, January 19, 2013

  Actual Average Record
Temperature  
Mean Temperature 38 °F -  
Max Temperature 39 °F 34 °F 44 °F (1991)
Min Temperature 37 °F 28 °F 12 °F (1993)
Degree Days  
Heating Degree Days 27    
Moisture  
Dew Point 37 °F    
Average Humidity 96    
Maximum Humidity 100    
Minimum Humidity 93    
Precipitation  
Precipitation 0.00 in - - ()
Sea Level Pressure  
Sea Level Pressure 29.16 in    
Wind  
Wind Speed 13 mph (East)    
Max Wind Speed 31 mph    
Max Gust Speed 44 mph    
Visibility 6 miles    
Events      
Averages and records for this station are not official NWS values.
T = Trace of Precipitation, MM = Missing Value Source: NWS Daily Summary

Daily Weather History Graph

Daily Weather History Graph

Search for Another Location

Airport:

Trip Planner

Search our weather history database for the weather conditions in past years. The results will help you decide how hot, cold, wet, or windy it might be!

Date:

Astronomy

Jan. 19, 2013 Rise Set
Actual Time 9:53 AM AKST 5:52 PM AKST
Civil Twilight 9:11 AM AKST 6:35 PM AKST
Nautical Twilight 8:25 AM AKST 7:21 PM AKST
Astronomical Twilight 7:42 AM AKST 8:04 PM AKST
Moon 12:36 PM AKST (1/19) 3:25 AM AKST (1/19)
Length of Visible Light 9h 23m
Length of Day
7h 58m
First Quarter, 58% of the Moon is Illuminated
Jan 19
First Quarter
Jan 26
Full
Feb 3
Last Quarter
Feb 9
New
Feb 17
First Quarter

Hourly Weather History & Observations

Time (AKST) Temp. Windchill Dew Point Humidity Pressure Visibility Wind Dir Wind Speed Gust Speed Precip Events Conditions
12:16 AM 37.4 °F 29.3 °F 35.6 °F 93% 29.47 in 3.0 mi NE 12.7 mph 32.2 mph N/A   Overcast
12:36 AM 37.4 °F 30.3 °F 35.6 °F 93% 29.47 in 5.0 mi NE 10.4 mph 31.1 mph N/A   Overcast
12:56 AM 37.4 °F 28.9 °F 35.6 °F 93% 29.46 in 5.0 mi ENE 13.8 mph 25.3 mph N/A   Overcast
1:16 AM 37.4 °F 29.8 °F 35.6 °F 93% 29.45 in 5.0 mi NE 11.5 mph 23.0 mph N/A   Overcast
1:36 AM 37.4 °F 29.3 °F 35.6 °F 93% 29.44 in 4.0 mi ENE 12.7 mph 25.3 mph N/A   Overcast
1:56 AM 37.4 °F 28.9 °F 35.6 °F 93% 29.44 in 5.0 mi ENE 13.8 mph 26.5 mph N/A   Overcast
2:16 AM 37.4 °F 29.3 °F 35.6 °F 93% 29.42 in 8.0 mi NE 12.7 mph 26.5 mph N/A   Overcast
2:36 AM 37.4 °F 28.9 °F 35.6 °F 93% 29.40 in 5.0 mi NE 13.8 mph 39.1 mph N/A   Overcast
3:16 AM 37.4 °F 29.3 °F 35.6 °F 93% 29.39 in 5.0 mi NE 12.7 mph 27.6 mph N/A   Overcast
3:36 AM 37.4 °F 29.3 °F 35.6 °F 93% 29.37 in 5.0 mi NE 12.7 mph 28.8 mph N/A   Overcast
3:56 AM 37.4 °F 27.8 °F 35.6 °F 93% 29.36 in 10.0 mi NE 17.3 mph 21.9 mph N/A   Overcast
4:16 AM 37.4 °F 28.9 °F 37.4 °F 100% 29.34 in 8.0 mi NE 13.8 mph 26.5 mph N/A   Overcast
4:36 AM 37.4 °F 28.2 °F 37.4 °F 100% 29.33 in 5.0 mi NE 16.1 mph 25.3 mph N/A   Overcast
4:56 AM 37.4 °F 27.8 °F 37.4 °F 100% 29.31 in 7.0 mi NNE 17.3 mph 26.5 mph N/A   Overcast
5:16 AM 37.4 °F 29.3 °F 37.4 °F 100% 29.29 in 8.0 mi NE 12.7 mph 33.4 mph N/A   Overcast
5:36 AM 37.4 °F 27.8 °F 37.4 °F 100% 29.28 in 7.0 mi NE 17.3 mph 36.8 mph N/A   Overcast
5:56 AM 37.4 °F 28.2 °F 37.4 °F 100% 29.27 in 10.0 mi NE 16.1 mph 29.9 mph N/A   Overcast
6:16 AM 39.2 °F 30.5 °F 37.4 °F 93% 29.25 in 9.0 mi NE 16.1 mph 36.8 mph N/A   Overcast
6:36 AM 39.2 °F 31.2 °F 37.4 °F 93% 29.25 in 8.0 mi NE 13.8 mph 32.2 mph N/A   Overcast
6:56 AM 39.2 °F 31.2 °F 37.4 °F 93% 29.23 in 5.0 mi NE 13.8 mph 29.9 mph N/A   Overcast
7:16 AM 39.2 °F 30.8 °F 39.2 °F 100% 29.21 in 5.0 mi NE 15.0 mph 32.2 mph N/A   Overcast
7:36 AM 39.2 °F 31.2 °F 39.2 °F 100% 29.20 in 3.0 mi NE 13.8 mph 34.5 mph N/A   Overcast
7:56 AM 39.2 °F 30.8 °F 39.2 °F 100% 29.19 in 3.0 mi NE 15.0 mph 32.2 mph N/A   Overcast
8:16 AM 39.2 °F 30.8 °F 39.2 °F 100% 29.18 in 3.0 mi ENE 15.0 mph 32.2 mph N/A   Overcast
8:36 AM 39.2 °F 30.2 °F 39.2 °F 100% 29.16 in 3.0 mi NE 17.3 mph 40.3 mph N/A   Overcast
8:56 AM 39.2 °F 33.0 °F 39.2 °F 100% 29.18 in 3.0 mi NE 9.2 mph 27.6 mph N/A   Overcast
9:16 AM 39.2 °F 31.6 °F 39.2 °F 100% 29.19 in 3.0 mi ENE 12.7 mph 25.3 mph N/A   Overcast
9:36 AM 39.2 °F 33.6 °F 39.2 °F 100% 29.17 in 3.0 mi ENE 8.1 mph 21.9 mph N/A   Overcast
9:56 AM 39.2 °F 33.6 °F 37.4 °F 93% 29.16 in 2.5 mi ENE 8.1 mph - N/A   Overcast
10:16 AM 39.2 °F 32.5 °F 37.4 °F 93% 29.16 in 2.5 mi East 10.4 mph 20.7 mph N/A   Overcast
10:36 AM 39.2 °F 32.5 °F 37.4 °F 93% 29.17 in 2.5 mi ESE 10.4 mph 23.0 mph N/A   Overcast
10:56 AM 39.2 °F 35.0 °F 37.4 °F 93% 29.15 in 4.0 mi East 5.8 mph - N/A   Overcast
11:16 AM 39.2 °F 37.0 °F 37.4 °F 93% 29.14 in 3.0 mi ENE 3.5 mph - N/A   Overcast
11:36 AM 39.2 °F 34.2 °F 39.2 °F 100% 29.13 in 3.0 mi ESE 6.9 mph - N/A   Overcast
11:56 AM 39.2 °F 33.6 °F 39.2 °F 100% 29.13 in 3.0 mi East 8.1 mph - N/A   Overcast
12:16 PM 39.2 °F 35.9 °F 39.2 °F 100% 29.11 in 3.0 mi SE 4.6 mph - N/A   Overcast
12:36 PM 39.2 °F 34.2 °F 39.2 °F 100% 29.09 in 4.0 mi East 6.9 mph 20.7 mph N/A   Overcast
12:56 PM 39.2 °F 35.9 °F 39.2 °F 100% 29.08 in 7.0 mi ENE 4.6 mph - N/A   Overcast
1:16 PM 39.2 °F 35.0 °F 39.2 °F 100% 29.08 in 9.0 mi SE 5.8 mph - N/A   Overcast
1:36 PM 39.2 °F 35.0 °F 39.2 °F 100% 29.06 in 10.0 mi SSE 5.8 mph - N/A   Mostly Cloudy
1:56 PM 39.2 °F 33.6 °F 39.2 °F 100% 29.05 in 10.0 mi SE 8.1 mph - N/A   Mostly Cloudy
2:16 PM 39.2 °F 33.6 °F 37.4 °F 93% 29.05 in 10.0 mi SE 8.1 mph 16.1 mph N/A   Mostly Cloudy
2:36 PM 39.2 °F 35.9 °F 37.4 °F 93% 29.04 in 10.0 mi SSE 4.6 mph - N/A   Overcast
2:56 PM 39.2 °F 35.0 °F 37.4 °F 93% 29.03 in 10.0 mi SE 5.8 mph - N/A   Overcast
3:16 PM 39.2 °F 33.6 °F 37.4 °F 93% 29.01 in 10.0 mi SE 8.1 mph 21.9 mph N/A   Overcast
3:36 PM 39.2 °F 37.0 °F 37.4 °F 93% 29.01 in 10.0 mi East 3.5 mph - N/A   Overcast
3:56 PM 39.2 °F 35.9 °F 37.4 °F 93% 29.01 in 6.0 mi East 4.6 mph - N/A   Overcast
4:16 PM 39.2 °F 35.9 °F 37.4 °F 93% 28.99 in 3.0 mi SE 4.6 mph - N/A   Overcast
4:36 PM 39.2 °F - 37.4 °F 93% 28.99 in 4.0 mi Calm Calm - N/A   Overcast
4:56 PM 39.2 °F 35.9 °F 37.4 °F 93% 28.99 in 6.0 mi SSE 4.6 mph - N/A   Overcast
5:16 PM 39.2 °F 35.9 °F 37.4 °F 93% 28.97 in 6.0 mi SE 4.6 mph - N/A   Overcast
5:36 PM 39.2 °F 33.6 °F 39.2 °F 100% 28.97 in 6.0 mi SSE 8.1 mph - N/A   Overcast
5:56 PM 39.2 °F 33.6 °F 39.2 °F 100% 28.97 in 6.0 mi SSE 8.1 mph - N/A   Overcast
6:16 PM 39.2 °F 31.6 °F 39.2 °F 100% 28.98 in 6.0 mi SSE 12.7 mph 16.1 mph N/A   Overcast
6:36 PM 39.2 °F 31.6 °F 37.4 °F 93% 28.98 in 2.5 mi SE 12.7 mph 17.3 mph N/A   Overcast
6:56 PM 39.2 °F 32.0 °F 37.4 °F 93% 28.97 in 3.0 mi SSE 11.5 mph - N/A   Overcast
7:16 PM 39.2 °F 31.2 °F 37.4 °F 93% 28.98 in 3.0 mi SSE 13.8 mph 19.6 mph N/A   Overcast
7:36 PM 39.2 °F 31.2 °F 37.4 °F 93% 29.00 in 3.0 mi SSE 13.8 mph 20.7 mph N/A   Overcast
7:56 PM 39.2 °F 29.8 °F 37.4 °F 93% 29.01 in 3.0 mi SSE 18.4 mph 25.3 mph N/A   Overcast
8:16 PM 37.4 °F 26.1 °F 37.4 °F 100% 29.01 in 9.0 mi South 24.2 mph 29.9 mph N/A   Overcast
8:36 PM 37.4 °F 26.9 °F 37.4 °F 100% 29.03 in 3.0 mi SSE 20.7 mph - N/A   Overcast
8:56 PM 37.4 °F 25.9 °F 35.6 °F 93% 29.05 in 5.0 mi South 25.3 mph 32.2 mph N/A   Overcast
9:16 PM 37.4 °F 25.6 °F 35.6 °F 93% 29.07 in 9.0 mi South 26.5 mph 32.2 mph N/A   Overcast
9:36 PM 37.4 °F 26.1 °F 37.4 °F 100% 29.08 in 6.0 mi South 24.2 mph 38.0 mph N/A   Overcast
9:56 PM 37.4 °F 25.0 °F 37.4 °F 100% 29.10 in 7.0 mi South 29.9 mph 40.3 mph N/A   Overcast
10:16 PM 37.4 °F 24.8 °F 35.6 °F 93% 29.13 in 10.0 mi South 31.1 mph 36.8 mph N/A   Overcast
10:36 PM 37.4 °F 25.9 °F 35.6 °F 93% 29.15 in 10.0 mi South 25.3 mph 43.7 mph N/A   Overcast
10:56 PM 37.4 °F 25.2 °F 35.6 °F 93% 29.17 in 10.0 mi South 28.8 mph 33.4 mph N/A   Overcast
11:16 PM 37.4 °F 25.9 °F 35.6 °F 93% 29.19 in 7.0 mi South 25.3 mph 36.8 mph N/A   Overcast
11:36 PM 37.4 °F 25.6 °F 35.6 °F 93% 29.21 in 7.0 mi South 26.5 mph 33.4 mph N/A   Overcast
11:56 PM 37.4 °F 25.0 °F 35.6 °F 93% 29.23 in 10.0 mi South 29.9 mph 38.0 mph N/A   Overcast